Retour au catalogue

STARLINK-35115

ActifCommunicationsSSO
NORAD 65665·PAYLOAD·🇺🇸 United States

Lancé Sep 19, 2025 depuis Vandenberg Space Force Base

Loading…

Prochains Passages (prochaines 24 heures)

TLE

FraisSource: CelesTrak SupGP

Époque: Sep 15, 2026, 02:41 UTC

1 65665C 25211P   26258.11229167  .00045636  00000+0  14178-2 0  2585
2 65665  97.2832 298.3930 0001360  81.8320 348.6260 15.33390445    14

Suivez STARLINK-35115 en temps réel avec AllMySat

Download on the App Store